Temp
90 89 88 88 87 84 81 81 81 80 78 77 77 77 77 77 77 76 75 74 73 73 74 73 72 73 78 81 82 81 80 79 75 79 82 79 77 76 77 79 82 83 77
91 87 87 86 82 82 79 82 80 77 76 76 76 76 76 76 76 75 76 74 73 72 72 72 72 77 74 76 79 73 74 76 76 71 73 78 75 76 76 75 78 84 83
89 89 86 82 81 81 78 78 76 76 75 76 75 75 75 75 75 75 74 73 73 73 73 73 73 73 72 74 74 77 78 77 77 77 76 77 78 77 77 77 77 78 82
89 86 82 80 79 80 78 78 76 75 74 74 75 75 75 75 75 75 74 73 73 74 74 74 73 73 72 73 73 73 73 76 75 78 77 77 77 76 77 75 76 80 78
85 83 80 79 78 76 75 75 74 74 74 74 74 74 75 76 78 74 74 73 72 72 73 74 73 69 66 66 75 72 72 74 76 76 75 75 74 73 71 75 75 76 79
82 80 78 76 76 76 74 70 71 73 73 73 73 73 74 81 65 68 73 74 73 72 71 72 72 70 68 65 65 65 67 69 68 71 73 70 68 71 73 72 72 71 71
80 79 77 75 74 73 72 71 71 71 72 71 73 73 73 74 64 65 68 76 74 73 72 73 76 76 71 74 65 65 65 65 65 71 68 68 68 70 69 68 68 69 71
79 77 76 74 73 72 71 71 70 71 70 71 72 72 73 73 64 64 66 76 74 73 73 73 74 74 70 70 74 74 75 75 74 77 73 72 73 72 71 71 70 70 76
75 75 75 75 72 71 71 70 70 70 70 71 72 71 72 71 63 63 66 74 75 73 73 73 74 73 63 63 71 73 73 75 66 66 65 64 64 63 66 73 73 72 72
72 72 76 74 73 72 71 69 70 71 72 75 72 73 70 72 62 62 65 77 74 76 74 73 65 68 62 61 70 72 71 74 75 76 73 68 66 71 65 71 73 70 71
73 72 70 70 72 71 70 70 70 71 72 72 71 73 73 73 68 60 60 75 78 75 77 76 78 62 60 58 57 70 71 70 72 73 76 77 78 78 78 74 72 71 70
72 68 66 66 71 72 69 70 70 71 69 70 70 73 76 74 64 59 58 59 66 75 76 80 76 60 58 56 60 63 61 62 75 76 76 76 76 76 76 75 72 71 73
69 66 66 66 68 68 69 69 71 70 73 71 73 74 76 77 77 59 58 58 59 70 78 69 61 58 56 58 56 59 58 74 75 74 74 74 74 76 73 73 72 71 69
69 68 67 66 66 69 74 74 74 74 75 75 75 76 78 78 78 79 74 71 59 65 67 73 71 66 55 61 66 68 74 76 76 75 73 75 76 76 74 76 73 73 71
69 69 68 67 68 69 73 75 76 76 76 77 77 78 77 76 78 70 70 79 79 74 73 77 77 76 76 76 78 78 78 77 75 75 75 74 74 74 74 75 73 71 69
66 66 71 71 72 73 73 73 57 57 57 55 55 65 78 62 56 53 50 51 52 53 73 74 75 67 68 76 76 76 78 74 74 75 74 73 72 73 73 74 73 71 68
71 73 75 73 74 72 73 73 70 63 52 49 49 50 50 51 49 48 47 48 47 51 72 75 75 74 66 74 77 77 76 77 74 75 73 70 73 73 70 71 70 69 68
74 64 77 74 73 72 75 73 75 73 70 72 53 55 49 47 47 45 45 45 68 60 69 75 76 75 74 76 76 76 76 77 75 74 71 69 73 72 71 70 69 68 67
74 75 72 75 77 74 76 76 77 77 76 76 78 58 57 47 45 44 44 69 74 76 71 78 76 75 78 77 77 76 74 74 73 72 73 73 73 72 69 69 69 55 58
73 68 73 78 77 76 77 76 77 76 76 77 79 80 81 67 73 74 71 73 75 77 80 78 78 78 77 76 76 75 75 74 74 73 73 72 72 71 68 67 68 66 66
75 69 72 75 77 77 77 77 77 78 78 79 80 79 57 80 78 75 81 78 76 78 77 77 76 77 77 76 75 75 75 74 73 73 72 71 71 69 69 69 68 67 67
69 65 63 66 72 75 76 78 78 79 79 80 81 75 55 78 80 81 80 81 81 78 78 77 76 78 79 78 76 75 74 73 72 72 71 71 70 70 69 68 67 67 66
64 62 62 70 71 67 74 78 79 79 80 81 82 81 80 80 77 73 81 81 80 80 79 78 77 76 77 76 76 75 72 72 73 73 71 71 70 69 69 68 67 67 66
61 60 64 70 70 72 74 78 79 69 80 81 82 81 81 79 82 81 80 81 80 79 79 78 77 76 76 74 75 75 74 74 73 72 71 70 69 67 69 68 67 66 65
61 63 68 72 73 76 78 79 80 80 80 81 79 79 82 83 82 82 81 80 79 78 77 77 76 75 73 72 72 72 55 47 61 48 67 68 67 66 67 67 66 65 65
71 72 73 76 78 78 79 79 80 81 81 81 81 81 81 81 81 80 79 78 77 77 76 76 76 74 73 73 72 51 40 41 54 37 62 67 67 67 67 65 65 65 64
MSLP
1008.84 1009.66 1010.42 1011.19 1011.96 1012.93 1013.54 1014.32 1014.94 1015.74 1016.31 1016.60 1016.78 1016.96 1017.03 1017.17 1017.41 1017.45 1017.76 1018.22 1018.26 1018.33 1018.44 1018.46 1018.41 1018.26 1017.55 1017.33 1017.17 1016.97 1016.67 1016.48 1015.88 1015.77 1016.14 1016.59 1016.80 1016.89 1016.57 1016.29 1015.57 1015.24 1015.64
1008.25 1009.36 1010.16 1011.08 1012.19 1012.89 1013.43 1013.98 1014.65 1015.30 1016.03 1016.65 1017.05 1017.32 1017.47 1017.65 1017.75 1017.76 1017.67 1018.18 1018.38 1018.57 1018.68 1018.74 1018.63 1018.38 1018.13 1017.95 1017.46 1017.79 1017.65 1017.38 1016.76 1016.62 1017.00 1016.61 1016.96 1016.99 1016.78 1016.40 1015.91 1015.07 1014.94
1008.02 1008.95 1009.99 1010.84 1011.61 1012.67 1013.56 1014.31 1014.89 1015.55 1016.20 1016.53 1016.76 1017.26 1017.63 1017.89 1018.14 1018.38 1018.48 1018.56 1018.57 1018.67 1018.74 1018.83 1018.90 1018.84 1018.65 1018.34 1018.11 1017.56 1017.42 1017.53 1017.26 1016.80 1016.61 1017.05 1016.91 1017.06 1016.49 1016.18 1015.85 1015.49 1015.18
1007.47 1008.30 1009.58 1010.44 1011.30 1012.11 1013.48 1014.32 1014.99 1015.45 1016.06 1016.72 1017.23 1017.10 1017.53 1017.99 1018.12 1018.39 1018.75 1018.96 1018.93 1018.98 1018.96 1019.04 1019.14 1019.12 1019.07 1018.78 1018.57 1018.38 1018.31 1017.52 1017.64 1017.03 1016.90 1016.86 1016.85 1016.91 1016.71 1016.17 1015.48 1015.11 1015.17
1007.39 1008.65 1009.90 1010.93 1012.20 1012.72 1012.78 1014.04 1014.98 1015.45 1016.05 1016.64 1016.98 1017.40 1017.45 1017.74 1018.07 1018.65 1019.05 1019.23 1019.31 1019.21 1019.20 1019.08 1019.53 1019.90 1020.01 1019.63 1018.66 1018.91 1018.56 1017.89 1017.56 1017.28 1017.07 1016.91 1017.13 1017.05 1016.98 1016.52 1015.97 1015.68 1015.12
1007.74 1008.87 1009.96 1011.09 1012.12 1012.80 1013.13 1014.01 1014.61 1015.19 1015.91 1016.52 1017.07 1017.43 1017.48 1017.06 1018.15 1018.64 1018.92 1019.27 1019.45 1019.41 1019.32 1019.31 1019.64 1019.85 1020.04 1019.91 1019.86 1019.76 1019.64 1019.06 1018.84 1018.32 1017.69 1017.76 1017.94 1017.60 1017.50 1017.19 1016.73 1016.30 1015.36
1007.69 1008.84 1009.96 1011.00 1012.31 1013.50 1013.90 1014.50 1014.62 1014.95 1015.67 1016.17 1016.87 1017.24 1017.38 1017.61 1018.47 1018.75 1018.80 1018.95 1019.23 1019.36 1019.44 1019.24 1019.09 1019.46 1019.78 1019.52 1019.80 1019.73 1019.67 1019.57 1019.37 1018.95 1018.80 1018.70 1018.35 1018.32 1018.25 1017.81 1017.52 1017.09 1016.32
1008.04 1009.02 1009.94 1011.11 1012.33 1013.31 1013.76 1014.46 1015.18 1015.26 1015.78 1016.18 1016.67 1017.22 1017.35 1017.71 1018.44 1018.68 1018.80 1018.77 1019.08 1019.20 1019.32 1019.28 1019.30 1019.62 1019.98 1019.81 1019.32 1019.11 1018.99 1018.91 1018.98 1018.59 1018.88 1018.95 1018.62 1018.67 1018.38 1017.87 1017.55 1017.03 1015.99
1008.14 1009.13 1010.39 1011.50 1012.51 1013.05 1013.50 1014.12 1014.92 1015.44 1015.60 1016.08 1016.60 1017.15 1017.27 1017.67 1018.31 1018.52 1018.69 1018.41 1018.51 1019.20 1019.29 1019.32 1019.39 1019.52 1020.02 1019.98 1019.46 1018.97 1018.83 1018.35 1018.81 1019.14 1019.34 1019.41 1019.37 1019.28 1018.98 1018.02 1016.82 1016.47 1015.81
1008.52 1009.72 1010.70 1012.31 1013.52 1014.02 1014.08 1014.03 1014.48 1015.32 1015.75 1016.03 1016.42 1016.92 1017.37 1017.62 1018.30 1018.39 1018.62 1017.88 1018.08 1018.09 1018.79 1019.09 1019.42 1019.56 1019.87 1019.94 1019.57 1018.97 1018.59 1018.04 1018.18 1018.12 1018.49 1018.74 1018.60 1017.97 1018.46 1018.15 1017.49 1016.67 1016.25
1008.07 1009.12 1009.93 1011.39 1013.75 1014.30 1015.09 1014.92 1014.62 1014.77 1015.31 1015.85 1016.27 1016.52 1016.86 1017.28 1017.97 1018.36 1018.42 1017.72 1017.39 1017.79 1017.54 1017.95 1018.20 1019.22 1019.47 1019.60 1019.60 1019.26 1018.65 1018.50 1018.24 1018.11 1017.44 1017.05 1016.83 1016.73 1016.91 1017.54 1017.78 1017.45 1016.88
1007.96 1009.21 1008.95 1007.84 1011.46 1013.13 1014.52 1015.15 1014.78 1014.74 1015.15 1015.62 1016.13 1016.17 1016.36 1016.75 1017.21 1018.05 1018.29 1018.22 1018.18 1017.67 1017.47 1017.50 1018.09 1018.87 1019.12 1019.15 1019.17 1018.85 1018.72 1018.60 1017.87 1016.94 1016.67 1016.45 1016.37 1016.33 1016.65 1017.28 1017.74 1017.65 1017.46
1007.39 1008.57 1009.32 1009.57 1009.99 1011.13 1012.29 1014.20 1014.35 1014.64 1014.79 1015.10 1015.42 1015.34 1015.33 1016.01 1016.26 1017.34 1017.68 1018.14 1018.22 1018.26 1017.51 1017.74 1018.19 1018.53 1018.71 1018.63 1018.30 1018.25 1018.29 1017.70 1016.83 1016.19 1016.05 1016.07 1016.51 1016.27 1017.15 1017.01 1017.09 1017.31 1017.35
1007.59 1008.95 1009.39 1009.75 1010.36 1011.38 1011.79 1012.95 1013.29 1013.80 1013.97 1014.10 1014.34 1014.50 1014.50 1014.81 1015.41 1015.87 1017.00 1017.53 1017.90 1017.99 1017.85 1017.66 1017.71 1017.83 1017.76 1017.62 1017.57 1017.42 1017.20 1016.56 1016.11 1015.62 1015.61 1015.66 1016.09 1015.95 1015.88 1015.96 1016.40 1016.30 1016.26
1007.89 1008.77 1009.74 1010.20 1010.94 1011.38 1011.20 1011.61 1012.36 1013.03 1013.39 1013.44 1013.64 1013.94 1014.16 1014.50 1014.78 1015.34 1015.61 1015.75 1016.08 1016.30 1016.53 1016.36 1016.17 1016.10 1016.09 1015.75 1015.52 1015.47 1015.56 1015.47 1015.33 1015.39 1015.14 1014.99 1015.19 1015.42 1015.33 1015.41 1015.96 1016.03 1015.94
1007.82 1008.54 1009.14 1009.82 1010.61 1010.93 1010.88 1011.65 1012.75 1013.26 1013.45 1014.03 1014.11 1014.23 1014.23 1014.79 1015.60 1015.90 1016.10 1016.22 1016.32 1016.24 1016.07 1015.70 1015.27 1015.44 1015.59 1014.76 1014.56 1014.49 1014.52 1014.59 1014.73 1014.59 1014.53 1014.69 1014.86 1014.81 1014.74 1014.82 1015.18 1015.37 1015.47
1007.02 1007.70 1008.35 1008.98 1009.60 1010.01 1010.41 1011.01 1011.91 1013.31 1013.84 1014.16 1014.46 1014.83 1015.12 1015.31 1015.90 1016.09 1016.28 1016.44 1016.49 1016.60 1015.99 1015.11 1014.62 1014.38 1014.82 1014.50 1013.95 1013.92 1013.88 1013.90 1014.20 1014.38 1014.13 1014.51 1014.38 1014.27 1014.66 1014.78 1014.86 1015.04 1015.09
1006.67 1007.25 1007.48 1008.12 1008.68 1009.29 1009.72 1010.70 1011.12 1011.69 1012.74 1013.52 1014.31 1014.49 1014.79 1015.25 1015.53 1015.87 1016.33 1016.47 1016.10 1016.05 1015.08 1014.03 1013.57 1013.76 1013.85 1013.36 1013.41 1013.51 1013.38 1013.37 1013.46 1013.65 1014.30 1014.25 1013.77 1013.91 1014.10 1014.27 1014.56 1014.75 1014.92
1006.47 1007.06 1007.57 1008.09 1008.21 1008.38 1009.43 1009.96 1010.40 1010.78 1011.28 1011.79 1012.24 1013.70 1013.94 1014.50 1015.01 1015.44 1015.83 1015.19 1014.15 1013.59 1013.69 1012.73 1013.20 1013.11 1012.57 1012.71 1012.89 1013.18 1013.36 1013.39 1013.39 1013.44 1013.30 1013.30 1013.48 1013.68 1013.97 1014.31 1014.48 1014.95 1015.26
1006.40 1007.29 1007.26 1007.80 1008.19 1008.62 1009.22 1009.55 1009.84 1010.15 1010.43 1010.71 1011.06 1011.35 1011.71 1013.43 1013.78 1013.83 1013.61 1013.47 1013.12 1012.58 1011.96 1012.08 1011.98 1012.17 1012.39 1012.59 1012.65 1012.70 1012.70 1012.71 1012.75 1012.95 1013.04 1013.23 1013.33 1013.69 1013.98 1014.17 1014.24 1014.27 1014.26
1005.99 1006.93 1007.10 1007.69 1008.16 1008.35 1008.92 1009.13 1009.34 1009.57 1009.70 1009.92 1010.19 1010.25 1011.22 1011.34 1011.53 1011.63 1011.35 1011.22 1011.66 1011.56 1011.62 1011.46 1011.75 1011.84 1012.02 1012.13 1012.20 1012.31 1012.31 1012.37 1012.53 1012.74 1012.91 1013.10 1013.32 1013.50 1013.76 1013.80 1013.88 1013.89 1013.92
1006.00 1006.77 1007.36 1007.84 1007.93 1008.54 1008.84 1008.85 1009.03 1009.13 1009.21 1009.19 1009.45 1010.31 1011.18 1011.35 1010.96 1010.69 1010.53 1010.29 1010.55 1011.31 1011.46 1011.45 1011.45 1011.28 1011.17 1011.33 1011.73 1012.03 1012.16 1012.27 1012.42 1012.54 1012.66 1012.89 1013.01 1013.17 1013.34 1013.38 1013.40 1013.42 1013.48
1006.02 1007.21 1007.83 1007.83 1008.27 1008.31 1008.42 1008.25 1008.39 1008.67 1008.75 1008.82 1008.87 1009.32 1009.93 1010.19 1010.39 1010.16 1009.77 1009.97 1010.29 1010.62 1010.91 1011.06 1011.11 1011.25 1011.37 1011.66 1011.87 1012.11 1012.29 1012.24 1012.16 1012.17 1012.23 1012.30 1012.45 1012.62 1012.74 1012.71 1012.73 1012.79 1012.93
1005.88 1007.18 1007.67 1007.83 1007.79 1007.82 1007.87 1007.73 1007.91 1008.27 1008.20 1008.29 1008.60 1008.93 1009.29 1009.56 1009.21 1009.36 1009.79 1009.81 1010.27 1010.51 1010.63 1010.81 1010.96 1011.01 1011.14 1011.82 1011.87 1012.01 1011.97 1012.04 1012.25 1012.16 1012.22 1012.24 1012.24 1012.23 1012.23 1012.19 1012.28 1012.32 1012.55
1006.29 1006.61 1006.86 1006.89 1007.31 1007.27 1007.37 1007.48 1007.45 1007.59 1007.96 1008.14 1008.71 1008.89 1008.59 1008.83 1009.00 1009.17 1009.54 1009.88 1010.11 1010.26 1010.32 1010.53 1010.77 1010.96 1011.38 1011.63 1011.79 1011.91 1012.63 1012.93 1013.01 1013.23 1012.82 1012.34 1012.27 1012.31 1012.16 1011.97 1012.00 1012.10 1012.13
1006.03 1006.03 1006.01 1006.09 1006.34 1006.71 1006.65 1006.88 1006.89 1007.05 1007.30 1007.53 1007.70 1007.99 1008.32 1008.51 1008.75 1009.15 1009.49 1009.78 1010.09 1010.07 1010.08 1010.15 1010.27 1010.67 1010.95 1011.17 1011.26 1012.21 1012.61 1012.94 1013.01 1013.32 1012.94 1012.18 1011.95 1011.91 1011.84 1011.73 1011.65 1011.53 1011.38
Wind_Speed
15 14 14 13 11 9 9 9 9 9 7 6 5 5 5 5 5 5 6 5 5 5 4 4 5 4 4 2 2 2 2 3 4 4 3 7 6 8 8 8 7 8 9
15 14 14 12 12 12 12 12 11 11 9 7 6 5 5 5 6 6 5 6 5 5 5 5 5 4 3 0 4 4 5 3 5 2 5 4 6 7 6 7 6 5 6
16 16 16 16 15 13 13 11 11 10 9 8 8 7 7 6 5 5 6 6 6 6 6 5 5 4 5 5 5 4 3 3 2 3 3 5 3 6 6 6 4 5 1
19 19 18 17 17 17 14 12 12 11 10 8 7 9 8 7 7 8 7 6 6 6 6 6 5 5 5 4 5 3 4 2 2 2 3 3 5 5 7 7 7 5 5
18 17 17 14 13 13 15 14 12 11 10 9 10 9 9 8 8 8 6 6 6 6 6 7 8 7 6 7 6 6 5 5 3 3 4 4 6 7 8 7 7 8 4
17 17 16 16 15 14 16 14 13 12 11 11 10 10 9 6 12 5 5 6 6 6 6 6 7 6 4 2 5 6 7 5 5 7 6 6 6 7 7 8 8 8 7
18 18 17 16 14 13 13 13 13 13 12 12 10 10 9 9 11 8 4 7 6 5 4 4 4 6 4 3 5 3 3 2 3 4 6 6 6 7 7 9 8 8 6
17 17 17 16 15 14 14 12 11 11 11 11 11 10 9 8 11 11 8 6 5 6 5 3 1 2 4 5 1 2 1 4 2 4 4 6 7 6 6 7 6 8 4
16 17 16 16 15 15 15 14 12 11 11 11 11 10 10 9 9 11 10 8 8 7 5 4 3 4 5 2 5 2 3 4 11 6 2 3 3 3 5 9 6 7 5
14 14 14 12 11 11 12 14 12 11 10 9 11 10 8 9 8 9 10 6 6 7 7 6 8 6 3 2 5 6 5 4 4 2 7 10 11 8 9 4 7 7 6
17 15 14 14 9 10 9 10 12 12 11 10 11 10 11 10 10 9 9 5 4 6 4 6 4 10 7 6 5 7 8 7 5 8 7 5 4 2 4 5 4 6 6
18 17 18 24 15 12 12 10 11 10 11 10 11 10 10 10 7 11 10 10 4 5 4 3 4 10 7 7 7 5 5 7 9 9 5 6 6 4 4 3 3 4 6
18 17 14 12 12 13 15 13 11 11 10 11 10 10 9 10 10 11 13 12 9 8 7 5 7 7 7 9 16 12 8 9 10 8 7 6 5 5 4 7 7 6 9
17 16 16 15 13 13 12 12 10 11 11 10 10 10 8 8 8 10 10 10 13 10 11 10 10 7 8 9 6 10 10 9 8 9 8 6 6 6 7 4 5 6 6
14 14 13 12 13 12 11 11 10 10 10 9 9 8 8 8 7 5 4 7 9 11 9 9 8 9 8 9 8 8 7 8 8 8 9 7 6 6 7 4 4 6 7
13 12 12 12 11 11 10 9 7 7 5 4 7 2 5 2 6 3 3 7 5 4 8 9 10 2 8 10 8 8 8 7 8 8 7 6 7 7 7 5 6 6 7
15 16 14 12 12 11 11 10 11 6 3 2 4 7 7 5 2 4 6 4 1 4 9 10 11 7 7 9 9 8 8 8 5 7 8 5 8 7 4 7 7 7 7
14 14 14 12 11 10 10 10 10 10 11 11 11 12 12 12 11 6 6 6 7 7 10 11 11 8 12 9 7 8 9 7 7 6 7 7 7 7 7 7 6 7 7
14 13 10 10 10 11 11 10 10 10 11 11 11 7 13 6 5 5 9 10 11 9 9 10 6 10 8 7 6 7 7 8 7 7 8 7 7 6 6 7 7 3 3
12 15 10 10 9 11 10 10 10 10 10 9 9 10 11 9 9 11 11 9 9 9 8 6 6 5 6 6 7 8 8 7 7 7 7 7 6 5 6 7 7 7 7
11 9 11 10 10 10 10 10 10 10 10 10 9 7 7 5 7 6 3 5 7 8 7 6 5 5 6 7 7 7 8 7 6 7 6 6 6 6 6 7 7 7 8
9 8 4 5 6 9 9 10 9 10 10 10 9 8 11 6 8 7 9 7 4 7 6 5 6 8 7 6 6 7 7 7 7 7 6 6 6 6 7 7 7 7 8
11 10 8 10 10 9 10 10 10 9 9 9 8 7 8 5 5 7 7 5 5 4 5 5 6 5 4 5 5 5 6 8 7 7 7 7 7 7 7 8 8 8 9
11 10 8 9 8 9 10 10 9 9 8 8 7 5 4 6 5 4 4 4 4 5 5 5 5 6 4 5 5 6 6 5 5 6 8 8 9 8 9 9 10 10 10
10 12 13 11 11 11 10 11 11 10 10 7 6 9 9 3 4 3 4 4 5 6 6 5 5 5 6 7 7 8 7 7 6 8 8 11 11 12 11 10 10 11 13
12 11 11 11 10 10 9 10 8 8 8 9 9 5 5 4 4 4 4 4 5 6 6 6 6 6 7 7 7 8 8 3 5 5 8 9 9 9 9 11 13 11 12
Wind_Direction
179 177 175 177 165 165 154 154 149 144 143 141 132 135 137 141 142 117 95 112 85 74 68 64 61 13 28 70 67 35 17 316 300 26 350 64 342 357 351 344 332 297 114
170 170 167 158 161 166 155 153 150 144 144 134 130 140 142 133 135 142 133 105 102 91 83 73 50 62 136 306 98 14 25 25 323 320 55 4 29 4 2 343 334 333 327
165 167 162 165 164 157 151 150 141 142 139 144 148 145 142 134 135 124 116 116 110 103 97 86 74 71 47 55 21 10 60 39 10 12 15 44 14 17 360 24 355 320 344
170 171 169 166 161 154 151 151 147 143 142 147 155 145 141 144 146 138 129 120 124 110 103 90 72 60 60 65 59 68 43 338 78 1 35 24 20 24 4 8 8 5 18
170 164 168 151 153 152 145 148 146 146 144 152 156 158 150 149 150 138 134 133 134 121 112 111 76 58 31 9 359 39 350 354 14 14 10 12 23 356 14 357 4 346 124
161 166 155 154 156 163 146 146 150 145 148 157 164 165 165 171 108 102 153 138 139 133 128 115 125 162 126 42 23 21 16 359 43 350 19 12 17 359 16 347 7 353 344
165 159 157 150 157 162 151 153 152 151 153 162 166 169 170 130 143 163 225 147 159 139 139 137 220 101 247 116 154 179 149 61 19 20 13 13 346 358 342 333 10 335 344
163 158 153 153 160 159 155 157 160 153 159 164 166 173 168 142 167 178 197 172 163 173 169 170 167 155 61 330 304 128 77 140 64 4 22 4 358 335 334 313 287 281 265
161 154 154 161 163 163 161 161 162 160 161 167 165 171 177 149 165 174 192 192 183 199 199 215 238 219 112 1 287 250 285 271 158 172 209 241 265 253 304 301 352 310 339
140 149 153 151 163 173 167 158 155 164 163 172 168 175 171 152 160 169 201 209 187 209 190 209 195 264 122 243 293 288 276 296 322 242 198 210 224 193 194 286 315 319 329
146 142 137 132 167 172 173 170 164 168 158 179 177 170 171 168 161 182 211 243 196 200 204 186 184 183 202 220 253 285 287 334 271 246 250 267 268 325 24 11 332 304 321
143 147 156 149 173 167 178 183 175 173 167 178 183 183 181 181 186 185 203 241 341 251 239 194 131 175 204 223 244 259 274 259 257 270 285 291 314 314 5 1 332 320 322
156 167 169 148 147 156 161 180 177 178 181 190 189 202 193 186 190 190 195 213 225 248 267 31 106 188 221 244 236 245 229 246 255 268 267 278 300 324 341 226 213 214 238
163 171 159 156 155 163 165 173 183 185 195 192 195 209 204 195 198 185 200 204 226 221 244 251 245 263 299 302 286 220 231 247 277 289 290 266 255 269 255 288 294 300 300
161 161 159 148 164 171 177 173 188 192 204 195 198 206 201 200 206 198 234 207 210 204 223 234 235 233 247 248 248 253 261 264 250 253 257 259 246 257 269 277 288 298 294
157 159 167 160 176 177 168 164 82 33 117 42 10 354 193 43 102 71 296 296 311 137 227 253 265 224 271 281 281 281 276 257 250 269 271 264 273 279 282 284 290 280 295
172 172 169 169 179 174 173 180 185 168 66 274 266 270 271 294 315 218 228 248 241 163 239 255 262 245 261 273 278 284 280 283 327 291 277 269 259 274 237 257 283 290 289
187 177 173 172 170 173 175 187 194 186 192 199 217 225 220 236 248 232 210 188 220 218 253 264 267 245 251 261 281 281 277 274 262 215 272 270 272 277 279 287 283 287 292
191 182 168 174 177 161 179 187 196 190 189 197 192 184 218 214 235 211 186 242 255 255 232 242 250 248 254 262 270 270 274 281 307 317 292 284 279 274 271 276 280 238 256
172 194 185 172 166 173 182 188 191 185 193 198 199 199 190 157 210 212 202 218 243 243 248 259 250 255 262 271 274 270 268 265 259 261 263 271 275 264 270 277 272 270 278
176 157 171 172 174 176 182 189 190 193 195 196 206 206 66 245 251 242 265 233 226 245 251 252 280 263 258 252 257 270 266 266 273 277 271 260 249 263 264 263 260 267 274
142 145 145 142 159 186 189 192 196 199 200 204 210 139 132 229 253 257 251 258 249 226 243 238 252 273 273 276 267 271 282 280 280 274 256 260 260 258 258 258 266 273 278
130 145 161 174 187 180 188 193 195 202 209 213 226 184 180 234 249 242 270 275 270 265 256 254 270 275 262 270 273 283 285 288 287 282 264 252 250 255 256 260 265 274 280
124 129 166 193 185 184 189 199 199 210 227 208 217 231 234 257 273 294 277 288 256 252 261 262 268 287 270 229 256 256 257 292 295 292 278 275 275 267 253 249 255 271 282
146 167 187 172 182 198 188 206 204 201 208 217 198 217 219 221 265 247 251 262 278 285 276 253 259 253 234 241 277 293 57 78 323 346 291 282 274 276 274 281 282 281 278
171 180 168 182 185 197 199 199 214 207 209 208 209 194 218 242 258 264 263 271 277 275 267 270 261 247 260 251 265 108 115 122 272 234 283 270 262 261 263 268 272 274 274